Bucharest, Romania

2:45 AM EET on January 19, 2017 (GMT +0200)
Bucharest

Weather History for 15420 - March, 2009

Change the Weather History Date:

Sunday, March 8, 2009

  Actual Average Record
Temperature  
Mean Temperature 44 °F -  
Max Temperature 50 °F 54 °F - ()
Min Temperature 38 °F 35 °F - ()
Degree Days  
Heating Degree Days 21    
Moisture  
Dew Point 40 °F    
Average Humidity 84    
Maximum Humidity 100    
Minimum Humidity 33    
Precipitation  
Precipitation 0.00 in 0.05 in - ()
Sea Level Pressure  
Sea Level Pressure 29.52 in    
Wind  
Wind Speed 8 mph ()    
Max Wind Speed 17 mph    
Max Gust Speed -    
Visibility 6.1 miles    
Events      
T = Trace of Precipitation, MM = Missing Value Source: Averaged Metar Reports

Daily Weather History Graph

Daily Weather History Graph

Search for Another Location

Airport or City:

Trip Planner

Search our weather history database for the weather conditions in past years. The results will help you decide how hot, cold, wet, or windy it might be!

Date:

Astronomy

Mar. 08, 2009 Rise Set
Actual Time 6:40 AM EET 6:12 PM EET
Civil Twilight 6:11 AM EET 6:41 PM EET
Nautical Twilight 5:38 AM EET 7:15 PM EET
Astronomical Twilight 5:04 AM EET 7:49 PM EET
Moon 3:12 PM EET (3/8) 5:08 AM EET (3/8)
Length of Visible Light 12h 29m
Length of Day
11h 31m
Waxing Gibbous, 91% of the Moon is Illuminated
Mar 8
Waxing Gibbous
Mar 11
Full
Mar 18
Last Quarter
Mar 26
New
Apr 2
First Quarter

Hourly Weather History & Observations

Time (EET) Temp. Windchill Dew Point Humidity Pressure Visibility Wind Dir Wind Speed Gust Speed Precip Events Conditions
12:00 AM 46 °F - 40 °F 72% 29.44 in 6 mi WSW 8.9 mph - -   Partly Cloudy
12:00 AM 46.4 °F 41.5 °F 46.4 °F 100% 29.42 in - WSW 10.4 mph - N/A   Clear
12:30 AM 46.4 °F 41.9 °F 46.4 °F 100% 29.44 in - SW 9.2 mph - N/A   Clear
1:00 AM 45 °F - 39 °F 72% 29.45 in 6 mi WSW 6.7 mph - -   Scattered Clouds
1:00 AM 46.4 °F 41.5 °F 44.6 °F 93% 29.44 in - SW 10.4 mph - N/A   Clear
1:30 AM 44.6 °F 39.2 °F 44.6 °F 100% 29.44 in - WSW 10.4 mph - N/A   Clear
2:00 AM 44 °F - 38 °F 71% 29.47 in 6 mi WSW 6.7 mph - -   Partly Cloudy
2:00 AM 44.6 °F 39.2 °F 44.6 °F 100% 29.44 in - SSW 10.4 mph - N/A   Clear
2:30 AM 42.8 °F 36.2 °F 42.8 °F 100% 29.44 in - SW 12.7 mph - N/A   Clear
3:00 AM 42 °F - 37 °F 75% 29.47 in 6 mi WSW 8.9 mph - -  
3:00 AM 41.0 °F 34.3 °F 41.0 °F 100% 29.44 in - SW 11.5 mph - N/A   Clear
3:30 AM 41.0 °F 34.3 °F 41.0 °F 100% 29.44 in - SW 11.5 mph - N/A   Clear
4:00 AM 40 °F - 36 °F 81% 29.46 in 6 mi WSW 11.2 mph - -  
4:00 AM 41.0 °F 34.3 °F 41.0 °F 100% 29.44 in - SW 11.5 mph - N/A   Clear
4:30 AM 41.0 °F 34.7 °F 41.0 °F 100% 29.44 in - SSW 10.4 mph - N/A   Clear
5:00 AM 39 °F - 36 °F 87% 29.46 in 6 mi SW 8.9 mph - -  
5:00 AM 41.0 °F 34.7 °F 39.2 °F 93% 29.44 in - SW 10.4 mph - N/A   Clear
5:30 AM 41.0 °F 34.7 °F 39.2 °F 93% 29.44 in - SSW 10.4 mph - N/A   Clear
6:00 AM 39 °F - 36 °F 86% 29.46 in 6 mi SW 8.9 mph - -   Scattered Clouds
6:00 AM 39.2 °F 33.0 °F 39.2 °F 100% 29.44 in - SSW 9.2 mph - N/A   Clear
6:30 AM 39.2 °F 33.0 °F 39.2 °F 100% 29.44 in - SW 9.2 mph - N/A   Clear
7:00 AM 38 °F - 36 °F 90% 29.46 in 6 mi SW 6.7 mph - -   Clear
7:30 AM 41.0 °F 34.7 °F 41.0 °F 100% 29.47 in 6.2 mi SSW 10.4 mph - N/A   Scattered Clouds
8:00 AM 40 °F - 37 °F 85% 29.48 in 6 mi SW 8.9 mph - -   Overcast
8:00 AM 42.8 °F 36.2 °F 41.0 °F 93% 29.47 in 6.2 mi SW 12.7 mph - N/A   Mostly Cloudy
8:30 AM 42.8 °F 37.0 °F 41.0 °F 93% 29.47 in 6.2 mi SSW 10.4 mph - N/A   Mostly Cloudy
9:00 AM 41 °F - 37 °F 81% 29.49 in 6 mi SW 8.9 mph - -   Overcast
9:00 AM 42.8 °F 37.0 °F 42.8 °F 100% 29.47 in 6.2 mi SSW 10.4 mph - N/A   Mostly Cloudy
9:30 AM 44.6 °F 38.4 °F 42.8 °F 93% 29.47 in 6.2 mi SW 12.7 mph - N/A   Mostly Cloudy
10:00 AM 44 °F - 38 °F 73% 29.50 in 6 mi SW 11.2 mph - -   Overcast
10:00 AM 44.6 °F 37.8 °F 44.6 °F 100% 29.50 in 6.2 mi SW 15.0 mph - N/A   Mostly Cloudy
10:30 AM 46.4 °F 40.1 °F 46.4 °F 100% 29.50 in 6.2 mi SW 15.0 mph - N/A   Mostly Cloudy
11:00 AM 46 °F - 38 °F 65% 29.52 in 6 mi SW 8.9 mph - -   Overcast
11:00 AM 48.2 °F - 44.6 °F 87% 29.50 in 6.2 mi SW 12.7 mph - N/A   Mostly Cloudy
11:30 AM 48.2 °F - 42.8 °F 82% 29.50 in 6.2 mi WSW 15.0 mph - N/A   Mostly Cloudy
12:00 PM 49 °F - 36 °F 50% 29.53 in 6 mi WSW 8.9 mph - -   Mostly Cloudy
12:00 PM 50.0 °F - 41.0 °F 71% 29.50 in 6.2 mi WSW 16.1 mph - N/A   Mostly Cloudy
12:30 PM 50.0 °F - 39.2 °F 66% 29.50 in 6.2 mi WSW 16.1 mph - N/A   Mostly Cloudy
1:00 PM 49 °F - 30 °F 36%  in 6 mi WSW 11.2 mph - -   Overcast
1:00 PM 50.0 °F - 42.8 °F 76% 29.50 in 6.2 mi West 15.0 mph - N/A   Scattered Clouds
1:30 PM 50.0 °F - 41.0 °F 71% 29.50 in 6.2 mi West 17.3 mph - N/A   Scattered Clouds
2:00 PM 48 °F - 32 °F 41% 29.54 in 6 mi WSW 11.2 mph - -   Overcast
2:00 PM 50.0 °F - 37.4 °F 62% 29.50 in 6.2 mi West 11.5 mph - N/A   Scattered Clouds
2:30 PM 51.8 °F - 37.4 °F 58% 29.53 in 6.2 mi West 10.4 mph - N/A   Partly Cloudy
3:00 PM 50 °F - 29 °F 33% 29.55 in 6 mi West 11.2 mph - -   Overcast
3:30 PM 46.4 °F 42.9 °F 42.8 °F 87% 29.53 in 6.2 mi NNE 6.9 mph - N/A   Mostly Cloudy
4:00 PM 45 °F - 34 °F 55% 29.56 in 6 mi North 6.7 mph - -   Overcast
4:00 PM 44.6 °F 41.4 °F 42.8 °F 93% 29.53 in 6.2 mi NNE 5.8 mph - N/A   Scattered Clouds
4:30 PM 44.6 °F 41.4 °F 44.6 °F 100% 29.56 in - North 5.8 mph - N/A   Clear
5:00 PM 44 °F - 35 °F 63% 29.57 in 6 mi North 4.5 mph - -   Overcast
5:00 PM 44.6 °F 42.2 °F 44.6 °F 100% 29.56 in 6.2 mi NNE 4.6 mph - N/A   Partly Cloudy
5:30 PM 44.6 °F - 42.8 °F 93% 29.56 in 6.2 mi Variable 2.3 mph - N/A   Mostly Cloudy
6:00 PM 44 °F - 35 °F 61% 29.60 in 6 mi North 2.2 mph - -   Overcast
6:00 PM 44.6 °F - 42.8 °F 93% 29.59 in 6.2 mi Calm Calm - N/A   Mostly Cloudy
6:30 PM 44.6 °F - 42.8 °F 93% 29.59 in 6.2 mi Calm Calm - N/A   Mostly Cloudy
7:00 PM 42 °F - 35 °F 68% 29.62 in 6 mi Calm Calm - -   Overcast
7:00 PM 44.6 °F - 42.8 °F 93% 29.62 in 6.2 mi East 1.2 mph - N/A   Partly Cloudy
7:30 PM 44.6 °F - 42.8 °F 93% 29.62 in - Variable 1.2 mph - N/A   Clear
8:00 PM 42 °F - 37 °F 75% 29.64 in 6 mi SSW 2.2 mph - -   Overcast
8:00 PM 44.6 °F - 42.8 °F 93% 29.62 in - SSW 1.2 mph - N/A   Clear
8:30 PM 44.6 °F - 42.8 °F 93% 29.62 in 6.2 mi Calm Calm - N/A   Partly Cloudy
9:00 PM 41 °F - 37 °F 81% 29.64 in 6 mi Calm Calm - -   Mostly Cloudy
9:00 PM 44.6 °F - 42.8 °F 93% 29.62 in 6.2 mi Calm Calm - N/A   Mostly Cloudy
9:30 PM 44.6 °F - 42.8 °F 93% 29.62 in 6.2 mi Calm Calm - N/A   Mostly Cloudy
10:00 PM 41 °F - 38 °F 84% 29.65 in 6 mi Calm Calm - -   Mostly Cloudy
10:00 PM 44.6 °F - 42.8 °F 93% 29.65 in 6.2 mi Calm Calm - N/A   Scattered Clouds
10:30 PM 44.6 °F - 42.8 °F 93% 29.65 in - Variable 2.3 mph - N/A   Clear
11:00 PM 41 °F - 38 °F 85% 29.65 in 6 mi SW 2.2 mph - -   Mostly Cloudy
11:00 PM 44.6 °F 43.1 °F 42.8 °F 93% 29.62 in - West 3.5 mph - N/A   Clear
11:30 PM 42.8 °F - 42.8 °F 100% 29.65 in 6.2 mi West 2.3 mph - N/A   Partly Cloudy